This is the latest recevied weather packets stored in our database for station/object W8CEN. If no packets are shown the sender has not sent any weather packets the latest 10 day(s).
| Time | Temp. | Humidity | Pressure | Rain* | Wind** | Luminosity | Snow |
|---|---|---|---|---|---|---|---|
| 1777986491 | 17.22° C | 71% | 984.2 hPa | 0 mm | - | 311 W/m² | - |
| 1777986189 | 16.67° C | 70% | 983.8 hPa | 0 mm | - | 308 W/m² | - |
| 1777985886 | 16.67° C | 71% | 984 hPa | 0 mm | - | 305 W/m² | - |
| 1777985583 | 17.22° C | 71% | 984 hPa | 0 mm | - | 274 W/m² | - |
| 1777985280 | 17.22° C | 70% | 984 hPa | 0 mm | - | 283 W/m² | - |
| 1777984976 | 16.67° C | 71% | 984.2 hPa | 0 mm | - | 305 W/m² | - |
| 1777984672 | 16.11° C | 72% | 984.1 hPa | 0 mm | - | 263 W/m² | - |
| 1777984369 | 16.11° C | 73% | 983.9 hPa | 0 mm | - | 187 W/m² | - |
| 1777984065 | 16.11° C | 73% | 984.1 hPa | 0 mm | - | 145 W/m² | - |
| 1777983763 | 16.11° C | 73% | 983.8 hPa | 0 mm | - | 97 W/m² | - |
| 1777983459 | 15.56° C | 73% | 983.9 hPa | 0 mm | - | 152 W/m² | - |
| 1777983156 | 15.56° C | 73% | 983.9 hPa | 0 mm | - | 130 W/m² | - |
| 1777982852 | 15.56° C | 73% | 983.9 hPa | 0 mm | - | 114 W/m² | - |
| 1777982548 | 15.56° C | 73% | 984 hPa | 0 mm | - | 123 W/m² | - |
| 1777982247 | 15.56° C | 72% | 983.7 hPa | 0 mm | - | 96 W/m² | - |
| 1777981945 | 15.56° C | 72% | 983.6 hPa | 0 mm | - | 89 W/m² | - |
| 1777981642 | 15.56° C | 72% | 983.4 hPa | 0 mm | - | 68 W/m² | - |
| 1777981338 | 15.56° C | 71% | 983.3 hPa | 0 mm | - | 61 W/m² | - |
| 1777981035 | 15.56° C | 71% | 983.3 hPa | 0 mm | - | 55 W/m² | - |
| 1777980732 | 15.56° C | 71% | 983.1 hPa | 0 mm | - | 53 W/m² | - |
| 1777980428 | 15.56° C | 71% | 983 hPa | 0 mm | - | 45 W/m² | - |
| 1777980126 | 15.56° C | 71% | 982.7 hPa | 0 mm | - | 32 W/m² | - |
| 1777979825 | 15.56° C | 71% | 982.5 hPa | 0 mm | - | 29 W/m² | - |
| 1777979521 | 15.56° C | 71% | 982.4 hPa | 0 mm | - | 20 W/m² | - |
| 1777979218 | 15.56° C | 70% | 982.5 hPa | 0 mm | - | 12 W/m² | - |
* Rain latest hour (hover to see other rain measurements)
** Current wind speed in m/s (hover to see current wind gust speed)